owner,sensor,date,latitude,longitude,vertical_datum,sea_water_temperature,qcFlag 
WAVCIS,ioos:station:WAVCIS:CSI16:2,2012-01-01T00:00:00Z,29.4012,-89.0355,10.0,18.939,11111222 
WAVCIS,ioos:station:WAVCIS:CSI16:2,2012-01-01T00:15:00Z,29.4012,-89.0355,10.0,18.941,11111222 
WAVCIS,ioos:station:WAVCIS:CSI16:2,2012-01-01T00:30:00Z,29.4012,-89.0355,10.0,18.945,11111222 
WAVCIS,ioos:station:WAVCIS:CSI16:2,2012-01-01T00:45:00Z,29.4012,-89.0355,10.0,18.948,11111222 
WAVCIS,ioos:station:WAVCIS:CSI16:2,2012-01-01T01:00:00Z,29.4012,-89.0355,10.0,18.951,11111222 
WAVCIS,ioos:station:WAVCIS:CSI16:2,2012-01-01T01:15:00Z,29.4012,-89.0355,10.0,18.951,11111222 
WAVCIS,ioos:station:WAVCIS:CSI16:2,2012-01-01T01:30:00Z,29.4012,-89.0355,10.0,18.948,11111222 
WAVCIS,ioos:station:WAVCIS:CSI16:2,2012-01-01T01:45:00Z,29.4012,-89.0355,10.0,18.95,11111222 
WAVCIS,ioos:station:WAVCIS:CSI16:2,2012-01-01T02:00:00Z,29.4012,-89.0355,10.0,18.95,11111222 
WAVCIS,ioos:station:WAVCIS:CSI16:2,2012-01-01T02:15:00Z,29.4012,-89.0355,10.0,18.945,11111222 
WAVCIS,ioos:station:WAVCIS:CSI16:2,2012-01-01T02:30:00Z,29.4012,-89.0355,10.0,18.943,11111222 
WAVCIS,ioos:station:WAVCIS:CSI16:2,2012-01-01T02:45:00Z,29.4012,-89.0355,10.0,18.951,11111222 
WAVCIS,ioos:station:WAVCIS:CSI16:2,2012-01-01T03:00:00Z,29.4012,-89.0355,10.0,18.954,11111222 
WAVCIS,ioos:station:WAVCIS:CSI16:2,2012-01-01T03:15:00Z,29.4012,-89.0355,10.0,18.956,11111222 
WAVCIS,ioos:station:WAVCIS:CSI16:2,2012-01-01T03:30:00Z,29.4012,-89.0355,10.0,18.954,11111222 
WAVCIS,ioos:station:WAVCIS:CSI16:2,2012-01-01T03:45:00Z,29.4012,-89.0355,10.0,18.955,11111222 
WAVCIS,ioos:station:WAVCIS:CSI16:2,2012-01-01T04:00:00Z,29.4012,-89.0355,10.0,18.958,11111222 
WAVCIS,ioos:station:WAVCIS:CSI16:2,2012-01-01T04:15:00Z,29.4012,-89.0355,10.0,18.959,11111222 
WAVCIS,ioos:station:WAVCIS:CSI16:2,2012-01-01T04:30:00Z,29.4012,-89.0355,10.0,18.962,11111222 
WAVCIS,ioos:station:WAVCIS:CSI16:2,2012-01-01T04:45:00Z,29.4012,-89.0355,10.0,18.963,11111222 
WAVCIS,ioos:station:WAVCIS:CSI16:2,2012-01-01T05:00:00Z,29.4012,-89.0355,10.0,18.963,11111222 
WAVCIS,ioos:station:WAVCIS:CSI16:2,2012-01-01T05:15:00Z,29.4012,-89.0355,10.0,18.964,11111222 
WAVCIS,ioos:station:WAVCIS:CSI16:2,2012-01-01T05:30:00Z,29.4012,-89.0355,10.0,18.958,11111222 
WAVCIS,ioos:station:WAVCIS:CSI16:2,2012-01-01T05:45:00Z,29.4012,-89.0355,10.0,18.966,11111222 
WAVCIS,ioos:station:WAVCIS:CSI16:2,2012-01-01T06:00:00Z,29.4012,-89.0355,10.0,18.966,11111222 
WAVCIS,ioos:station:WAVCIS:CSI16:2,2012-01-01T06:15:00Z,29.4012,-89.0355,10.0,18.967,11111222 
WAVCIS,ioos:station:WAVCIS:CSI16:2,2012-01-01T06:30:00Z,29.4012,-89.0355,10.0,18.965,11111222 
WAVCIS,ioos:station:WAVCIS:CSI16:2,2012-01-01T06:45:00Z,29.4012,-89.0355,10.0,18.965,11111222 
WAVCIS,ioos:station:WAVCIS:CSI16:2,2012-01-01T07:00:00Z,29.4012,-89.0355,10.0,18.964,11111222 
WAVCIS,ioos:station:WAVCIS:CSI16:2,2012-01-01T07:15:00Z,29.4012,-89.0355,10.0,18.964,11111222 
WAVCIS,ioos:station:WAVCIS:CSI16:2,2012-01-01T07:30:00Z,29.4012,-89.0355,10.0,18.961,11111222 
WAVCIS,ioos:station:WAVCIS:CSI16:2,2012-01-01T07:45:00Z,29.4012,-89.0355,10.0,18.963,11111222 
WAVCIS,ioos:station:WAVCIS:CSI16:2,2012-01-01T08:00:00Z,29.4012,-89.0355,10.0,18.966,11111222 
WAVCIS,ioos:station:WAVCIS:CSI16:2,2012-01-01T08:15:00Z,29.4012,-89.0355,10.0,18.966,11111222 
WAVCIS,ioos:station:WAVCIS:CSI16:2,2012-01-01T08:30:00Z,29.4012,-89.0355,10.0,18.967,11111222 
WAVCIS,ioos:station:WAVCIS:CSI16:2,2012-01-01T08:45:00Z,29.4012,-89.0355,10.0,18.969,11111222 
WAVCIS,ioos:station:WAVCIS:CSI16:2,2012-01-01T09:00:00Z,29.4012,-89.0355,10.0,18.97,11111222 
WAVCIS,ioos:station:WAVCIS:CSI16:2,2012-01-01T09:15:00Z,29.4012,-89.0355,10.0,18.973,11111222 
WAVCIS,ioos:station:WAVCIS:CSI16:2,2012-01-01T09:30:00Z,29.4012,-89.0355,10.0,18.977,11111222 
WAVCIS,ioos:station:WAVCIS:CSI16:2,2012-01-01T09:45:00Z,29.4012,-89.0355,10.0,18.978,11111222 
WAVCIS,ioos:station:WAVCIS:CSI16:2,2012-01-01T10:00:00Z,29.4012,-89.0355,10.0,18.979,11111222 
WAVCIS,ioos:station:WAVCIS:CSI16:2,2012-01-01T10:15:00Z,29.4012,-89.0355,10.0,18.98,11111222 
WAVCIS,ioos:station:WAVCIS:CSI16:2,2012-01-01T10:30:00Z,29.4012,-89.0355,10.0,18.984,11111222 
WAVCIS,ioos:station:WAVCIS:CSI16:2,2012-01-01T10:45:00Z,29.4012,-89.0355,10.0,18.988,11111222 
WAVCIS,ioos:station:WAVCIS:CSI16:2,2012-01-01T11:00:00Z,29.4012,-89.0355,10.0,18.989,11111222 
WAVCIS,ioos:station:WAVCIS:CSI16:2,2012-01-01T11:15:00Z,29.4012,-89.0355,10.0,18.992,11111222 
WAVCIS,ioos:station:WAVCIS:CSI16:2,2012-01-01T11:30:00Z,29.4012,-89.0355,10.0,18.992,11111222 
WAVCIS,ioos:station:WAVCIS:CSI16:2,2012-01-01T11:45:00Z,29.4012,-89.0355,10.0,18.981,11111222 
WAVCIS,ioos:station:WAVCIS:CSI16:2,2012-01-01T12:00:00Z,29.4012,-89.0355,10.0,18.977,11111222 
WAVCIS,ioos:station:WAVCIS:CSI16:2,2012-01-01T12:15:00Z,29.4012,-89.0355,10.0,18.976,11111222 
WAVCIS,ioos:station:WAVCIS:CSI16:2,2012-01-01T12:30:00Z,29.4012,-89.0355,10.0,18.967,11111222 
WAVCIS,ioos:station:WAVCIS:CSI16:2,2012-01-01T12:45:00Z,29.4012,-89.0355,10.0,18.961,11111222 
WAVCIS,ioos:station:WAVCIS:CSI16:2,2012-01-01T13:00:00Z,29.4012,-89.0355,10.0,18.926,11111222 
WAVCIS,ioos:station:WAVCIS:CSI16:2,2012-01-01T13:15:00Z,29.4012,-89.0355,10.0,18.881,11111222 
WAVCIS,ioos:station:WAVCIS:CSI16:2,2012-01-01T13:30:00Z,29.4012,-89.0355,10.0,18.938,11111222 
WAVCIS,ioos:station:WAVCIS:CSI16:2,2012-01-01T13:45:00Z,29.4012,-89.0355,10.0,18.839,11111222 
WAVCIS,ioos:station:WAVCIS:CSI16:2,2012-01-01T14:00:00Z,29.4012,-89.0355,10.0,18.725,11111222 
WAVCIS,ioos:station:WAVCIS:CSI16:2,2012-01-01T14:15:00Z,29.4012,-89.0355,10.0,18.689,11111222 
WAVCIS,ioos:station:WAVCIS:CSI16:2,2012-01-01T14:30:00Z,29.4012,-89.0355,10.0,18.854,11111222 
WAVCIS,ioos:station:WAVCIS:CSI16:2,2012-01-01T14:45:00Z,29.4012,-89.0355,10.0,18.692,11111222 
WAVCIS,ioos:station:WAVCIS:CSI16:2,2012-01-01T15:00:00Z,29.4012,-89.0355,10.0,18.636,11111222 
WAVCIS,ioos:station:WAVCIS:CSI16:2,2012-01-01T15:15:00Z,29.4012,-89.0355,10.0,18.617,11111222 
WAVCIS,ioos:station:WAVCIS:CSI16:2,2012-01-01T15:30:00Z,29.4012,-89.0355,10.0,18.613,11111222 
WAVCIS,ioos:station:WAVCIS:CSI16:2,2012-01-01T15:45:00Z,29.4012,-89.0355,10.0,18.599,11111222 
WAVCIS,ioos:station:WAVCIS:CSI16:2,2012-01-01T16:00:00Z,29.4012,-89.0355,10.0,18.605,11111222 
WAVCIS,ioos:station:WAVCIS:CSI16:2,2012-01-01T16:15:00Z,29.4012,-89.0355,10.0,18.584,11111222 
WAVCIS,ioos:station:WAVCIS:CSI16:2,2012-01-01T16:30:00Z,29.4012,-89.0355,10.0,18.596,11111222 
WAVCIS,ioos:station:WAVCIS:CSI16:2,2012-01-01T16:45:00Z,29.4012,-89.0355,10.0,18.593,11111222 
WAVCIS,ioos:station:WAVCIS:CSI16:2,2012-01-01T17:00:00Z,29.4012,-89.0355,10.0,18.595,11111222 
WAVCIS,ioos:station:WAVCIS:CSI16:2,2012-01-01T17:15:00Z,29.4012,-89.0355,10.0,18.707,11111222 
WAVCIS,ioos:station:WAVCIS:CSI16:2,2012-01-01T17:30:00Z,29.4012,-89.0355,10.0,18.779,11111222 
WAVCIS,ioos:station:WAVCIS:CSI16:2,2012-01-01T17:45:00Z,29.4012,-89.0355,10.0,18.758,11111222 
WAVCIS,ioos:station:WAVCIS:CSI16:2,2012-01-01T18:00:00Z,29.4012,-89.0355,10.0,18.818,11111222 
WAVCIS,ioos:station:WAVCIS:CSI16:2,2012-01-01T18:15:00Z,29.4012,-89.0355,10.0,18.988,11111222 
WAVCIS,ioos:station:WAVCIS:CSI16:2,2012-01-01T18:30:00Z,29.4012,-89.0355,10.0,19.006,11111222 
WAVCIS,ioos:station:WAVCIS:CSI16:2,2012-01-01T18:45:00Z,29.4012,-89.0355,10.0,19.077,11111222 
WAVCIS,ioos:station:WAVCIS:CSI16:2,2012-01-01T19:00:00Z,29.4012,-89.0355,10.0,19.104,11111222 
WAVCIS,ioos:station:WAVCIS:CSI16:2,2012-01-01T19:15:00Z,29.4012,-89.0355,10.0,19.078,11111222 
WAVCIS,ioos:station:WAVCIS:CSI16:2,2012-01-01T19:30:00Z,29.4012,-89.0355,10.0,19.093,11111222 
WAVCIS,ioos:station:WAVCIS:CSI16:2,2012-01-01T19:45:00Z,29.4012,-89.0355,10.0,19.116,11111222 
WAVCIS,ioos:station:WAVCIS:CSI16:2,2012-01-01T20:00:00Z,29.4012,-89.0355,10.0,19.117,11111222 
WAVCIS,ioos:station:WAVCIS:CSI16:2,2012-01-01T20:15:00Z,29.4012,-89.0355,10.0,19.136,11111222 
WAVCIS,ioos:station:WAVCIS:CSI16:2,2012-01-01T20:30:00Z,29.4012,-89.0355,10.0,19.151,11111222 
WAVCIS,ioos:station:WAVCIS:CSI16:2,2012-01-01T20:45:00Z,29.4012,-89.0355,10.0,19.14,11111222 
WAVCIS,ioos:station:WAVCIS:CSI16:2,2012-01-01T21:00:00Z,29.4012,-89.0355,10.0,19.158,11111222 
WAVCIS,ioos:station:WAVCIS:CSI16:2,2012-01-01T21:15:00Z,29.4012,-89.0355,10.0,19.179,11111222 
WAVCIS,ioos:station:WAVCIS:CSI16:2,2012-01-01T21:30:00Z,29.4012,-89.0355,10.0,19.191,11111222 
WAVCIS,ioos:station:WAVCIS:CSI16:2,2012-01-01T21:45:00Z,29.4012,-89.0355,10.0,19.201,11111222 
WAVCIS,ioos:station:WAVCIS:CSI16:2,2012-01-01T22:00:00Z,29.4012,-89.0355,10.0,19.206,11111222 
WAVCIS,ioos:station:WAVCIS:CSI16:2,2012-01-01T22:15:00Z,29.4012,-89.0355,10.0,19.213,11111222 
WAVCIS,ioos:station:WAVCIS:CSI16:2,2012-01-01T22:30:00Z,29.4012,-89.0355,10.0,19.22,11111222 
WAVCIS,ioos:station:WAVCIS:CSI16:2,2012-01-01T22:45:00Z,29.4012,-89.0355,10.0,19.229,11111222 
WAVCIS,ioos:station:WAVCIS:CSI16:2,2012-01-01T23:00:00Z,29.4012,-89.0355,10.0,19.241,11111222 
WAVCIS,ioos:station:WAVCIS:CSI16:2,2012-01-01T23:15:00Z,29.4012,-89.0355,10.0,19.254,11111222 
WAVCIS,ioos:station:WAVCIS:CSI16:2,2012-01-01T23:30:00Z,29.4012,-89.0355,10.0,19.275,11111222 
WAVCIS,ioos:station:WAVCIS:CSI16:2,2012-01-01T23:45:00Z,29.4012,-89.0355,10.0,19.284,11111222 
WAVCIS,ioos:station:WAVCIS:CSI16:2,2012-01-02T00:00:00Z,29.4012,-89.0355,10.0,19.353,11111222 
WAVCIS,ioos:station:WAVCIS:CSI16:2,2012-01-02T00:15:00Z,29.4012,-89.0355,10.0,19.371,11111222 
WAVCIS,ioos:station:WAVCIS:CSI16:2,2012-01-02T00:30:00Z,29.4012,-89.0355,10.0,19.402,11111222 
WAVCIS,ioos:station:WAVCIS:CSI16:2,2012-01-02T00:45:00Z,29.4012,-89.0355,10.0,19.375,11111222 
WAVCIS,ioos:station:WAVCIS:CSI16:2,2012-01-02T01:00:00Z,29.4012,-89.0355,10.0,19.398,11111222 
WAVCIS,ioos:station:WAVCIS:CSI16:2,2012-01-02T01:15:00Z,29.4012,-89.0355,10.0,19.421,11111222 
WAVCIS,ioos:station:WAVCIS:CSI16:2,2012-01-02T01:30:00Z,29.4012,-89.0355,10.0,19.38,11111222 
WAVCIS,ioos:station:WAVCIS:CSI16:2,2012-01-02T01:45:00Z,29.4012,-89.0355,10.0,19.398,11111222 
WAVCIS,ioos:station:WAVCIS:CSI16:2,2012-01-02T02:00:00Z,29.4012,-89.0355,10.0,19.427,11111222 
WAVCIS,ioos:station:WAVCIS:CSI16:2,2012-01-02T02:15:00Z,29.4012,-89.0355,10.0,19.446,11111222 
WAVCIS,ioos:station:WAVCIS:CSI16:2,2012-01-02T02:30:00Z,29.4012,-89.0355,10.0,19.413,11111222 
WAVCIS,ioos:station:WAVCIS:CSI16:2,2012-01-02T02:45:00Z,29.4012,-89.0355,10.0,19.389,11111222 
WAVCIS,ioos:station:WAVCIS:CSI16:2,2012-01-02T03:00:00Z,29.4012,-89.0355,10.0,19.367,11111222 
WAVCIS,ioos:station:WAVCIS:CSI16:2,2012-01-02T03:15:00Z,29.4012,-89.0355,10.0,19.367,11111222 
WAVCIS,ioos:station:WAVCIS:CSI16:2,2012-01-02T03:30:00Z,29.4012,-89.0355,10.0,19.386,11111222 
WAVCIS,ioos:station:WAVCIS:CSI16:2,2012-01-02T03:45:00Z,29.4012,-89.0355,10.0,19.385,11111222 
WAVCIS,ioos:station:WAVCIS:CSI16:2,2012-01-02T04:00:00Z,29.4012,-89.0355,10.0,19.373,11111222 
WAVCIS,ioos:station:WAVCIS:CSI16:2,2012-01-02T04:15:00Z,29.4012,-89.0355,10.0,19.379,11111222 
WAVCIS,ioos:station:WAVCIS:CSI16:2,2012-01-02T04:30:00Z,29.4012,-89.0355,10.0,19.394,11111222 
WAVCIS,ioos:station:WAVCIS:CSI16:2,2012-01-02T04:45:00Z,29.4012,-89.0355,10.0,19.403,11111222 
WAVCIS,ioos:station:WAVCIS:CSI16:2,2012-01-02T05:00:00Z,29.4012,-89.0355,10.0,19.407,11111222 
WAVCIS,ioos:station:WAVCIS:CSI16:2,2012-01-02T05:15:00Z,29.4012,-89.0355,10.0,19.409,11111222 
WAVCIS,ioos:station:WAVCIS:CSI16:2,2012-01-02T05:30:00Z,29.4012,-89.0355,10.0,19.403,11111222 
WAVCIS,ioos:station:WAVCIS:CSI16:2,2012-01-02T05:45:00Z,29.4012,-89.0355,10.0,19.38,11111222 
WAVCIS,ioos:station:WAVCIS:CSI16:2,2012-01-02T06:00:00Z,29.4012,-89.0355,10.0,19.337,11111222 
WAVCIS,ioos:station:WAVCIS:CSI16:2,2012-01-02T06:15:00Z,29.4012,-89.0355,10.0,19.279,11111222 
WAVCIS,ioos:station:WAVCIS:CSI16:2,2012-01-02T06:30:00Z,29.4012,-89.0355,10.0,19.236,11111222 
WAVCIS,ioos:station:WAVCIS:CSI16:2,2012-01-02T06:45:00Z,29.4012,-89.0355,10.0,19.139,11111222 
WAVCIS,ioos:station:WAVCIS:CSI16:2,2012-01-02T07:00:00Z,29.4012,-89.0355,10.0,18.932,11111222 
WAVCIS,ioos:station:WAVCIS:CSI16:2,2012-01-02T07:15:00Z,29.4012,-89.0355,10.0,18.853,11111222 
WAVCIS,ioos:station:WAVCIS:CSI16:2,2012-01-02T07:30:00Z,29.4012,-89.0355,10.0,18.75,11111222 
WAVCIS,ioos:station:WAVCIS:CSI16:2,2012-01-02T07:45:00Z,29.4012,-89.0355,10.0,18.439,11111222 
WAVCIS,ioos:station:WAVCIS:CSI16:2,2012-01-02T08:00:00Z,29.4012,-89.0355,10.0,17.692,11111222 
WAVCIS,ioos:station:WAVCIS:CSI16:2,2012-01-02T08:15:00Z,29.4012,-89.0355,10.0,17.293,11111222 
WAVCIS,ioos:station:WAVCIS:CSI16:2,2012-01-02T08:30:00Z,29.4012,-89.0355,10.0,17.136,11111222 
WAVCIS,ioos:station:WAVCIS:CSI16:2,2012-01-02T08:45:00Z,29.4012,-89.0355,10.0,17.269,11111222 
WAVCIS,ioos:station:WAVCIS:CSI16:2,2012-01-02T09:00:00Z,29.4012,-89.0355,10.0,17.275,11111222 
WAVCIS,ioos:station:WAVCIS:CSI16:2,2012-01-02T09:15:00Z,29.4012,-89.0355,10.0,16.785,11111222 
WAVCIS,ioos:station:WAVCIS:CSI16:2,2012-01-02T09:30:00Z,29.4012,-89.0355,10.0,16.717,11111222 
WAVCIS,ioos:station:WAVCIS:CSI16:2,2012-01-02T09:45:00Z,29.4012,-89.0355,10.0,16.77,11111222 
WAVCIS,ioos:station:WAVCIS:CSI16:2,2012-01-02T10:00:00Z,29.4012,-89.0355,10.0,16.772,11111222 
WAVCIS,ioos:station:WAVCIS:CSI16:2,2012-01-02T10:15:00Z,29.4012,-89.0355,10.0,16.803,11111222 
WAVCIS,ioos:station:WAVCIS:CSI16:2,2012-01-02T10:30:00Z,29.4012,-89.0355,10.0,16.757,11111222 
WAVCIS,ioos:station:WAVCIS:CSI16:2,2012-01-02T10:45:00Z,29.4012,-89.0355,10.0,16.731,11111222 
WAVCIS,ioos:station:WAVCIS:CSI16:2,2012-01-02T11:00:00Z,29.4012,-89.0355,10.0,16.518,11111222 
WAVCIS,ioos:station:WAVCIS:CSI16:2,2012-01-02T11:15:00Z,29.4012,-89.0355,10.0,16.55,11111222 
WAVCIS,ioos:station:WAVCIS:CSI16:2,2012-01-02T11:30:00Z,29.4012,-89.0355,10.0,16.606,11111222 
WAVCIS,ioos:station:WAVCIS:CSI16:2,2012-01-02T11:45:00Z,29.4012,-89.0355,10.0,16.614,11111222 
WAVCIS,ioos:station:WAVCIS:CSI16:2,2012-01-02T12:00:00Z,29.4012,-89.0355,10.0,16.529,11111222 
WAVCIS,ioos:station:WAVCIS:CSI16:2,2012-01-02T12:15:00Z,29.4012,-89.0355,10.0,16.542,11111222 
WAVCIS,ioos:station:WAVCIS:CSI16:2,2012-01-02T12:30:00Z,29.4012,-89.0355,10.0,16.633,11111222 
WAVCIS,ioos:station:WAVCIS:CSI16:2,2012-01-02T12:45:00Z,29.4012,-89.0355,10.0,16.681,11111222 
WAVCIS,ioos:station:WAVCIS:CSI16:2,2012-01-02T13:00:00Z,29.4012,-89.0355,10.0,16.725,11111222 
WAVCIS,ioos:station:WAVCIS:CSI16:2,2012-01-02T13:15:00Z,29.4012,-89.0355,10.0,16.902,11111222 
WAVCIS,ioos:station:WAVCIS:CSI16:2,2012-01-02T13:30:00Z,29.4012,-89.0355,10.0,17.054,11111222 
WAVCIS,ioos:station:WAVCIS:CSI16:2,2012-01-02T13:45:00Z,29.4012,-89.0355,10.0,17.127,11111222 
WAVCIS,ioos:station:WAVCIS:CSI16:2,2012-01-02T14:00:00Z,29.4012,-89.0355,10.0,17.102,11111222 
WAVCIS,ioos:station:WAVCIS:CSI16:2,2012-01-02T14:15:00Z,29.4012,-89.0355,10.0,17.11,11111222 
WAVCIS,ioos:station:WAVCIS:CSI16:2,2012-01-02T14:30:00Z,29.4012,-89.0355,10.0,17.152,11111222 
WAVCIS,ioos:station:WAVCIS:CSI16:2,2012-01-02T14:45:00Z,29.4012,-89.0355,10.0,17.087,11111222 
WAVCIS,ioos:station:WAVCIS:CSI16:2,2012-01-02T15:00:00Z,29.4012,-89.0355,10.0,17.146,11111222 
WAVCIS,ioos:station:WAVCIS:CSI16:2,2012-01-02T15:15:00Z,29.4012,-89.0355,10.0,17.222,11111222 
WAVCIS,ioos:station:WAVCIS:CSI16:2,2012-01-02T15:30:00Z,29.4012,-89.0355,10.0,17.337,11111222 
WAVCIS,ioos:station:WAVCIS:CSI16:2,2012-01-02T15:45:00Z,29.4012,-89.0355,10.0,17.31,11111222 
WAVCIS,ioos:station:WAVCIS:CSI16:2,2012-01-02T16:00:00Z,29.4012,-89.0355,10.0,17.314,11111222 
WAVCIS,ioos:station:WAVCIS:CSI16:2,2012-01-02T16:15:00Z,29.4012,-89.0355,10.0,17.292,11111222 
WAVCIS,ioos:station:WAVCIS:CSI16:2,2012-01-02T16:30:00Z,29.4012,-89.0355,10.0,17.292,11111222 
WAVCIS,ioos:station:WAVCIS:CSI16:2,2012-01-02T16:45:00Z,29.4012,-89.0355,10.0,17.322,11111222 
WAVCIS,ioos:station:WAVCIS:CSI16:2,2012-01-02T17:00:00Z,29.4012,-89.0355,10.0,17.473,11111222 
WAVCIS,ioos:station:WAVCIS:CSI16:2,2012-01-02T17:15:00Z,29.4012,-89.0355,10.0,17.461,11111222 
WAVCIS,ioos:station:WAVCIS:CSI16:2,2012-01-02T17:30:00Z,29.4012,-89.0355,10.0,17.462,11111222 
WAVCIS,ioos:station:WAVCIS:CSI16:2,2012-01-02T17:45:00Z,29.4012,-89.0355,10.0,17.475,11111222 
WAVCIS,ioos:station:WAVCIS:CSI16:2,2012-01-02T18:00:00Z,29.4012,-89.0355,10.0,17.514,11111222 
WAVCIS,ioos:station:WAVCIS:CSI16:2,2012-01-02T18:15:00Z,29.4012,-89.0355,10.0,17.526,11111222 
WAVCIS,ioos:station:WAVCIS:CSI16:2,2012-01-02T18:30:00Z,29.4012,-89.0355,10.0,17.535,11111222 
WAVCIS,ioos:station:WAVCIS:CSI16:2,2012-01-02T18:45:00Z,29.4012,-89.0355,10.0,17.539,11111222 
WAVCIS,ioos:station:WAVCIS:CSI16:2,2012-01-02T19:00:00Z,29.4012,-89.0355,10.0,17.542,11111222 
WAVCIS,ioos:station:WAVCIS:CSI16:2,2012-01-02T19:15:00Z,29.4012,-89.0355,10.0,17.552,11111222 
WAVCIS,ioos:station:WAVCIS:CSI16:2,2012-01-02T19:30:00Z,29.4012,-89.0355,10.0,17.565,11111222 
WAVCIS,ioos:station:WAVCIS:CSI16:2,2012-01-02T19:45:00Z,29.4012,-89.0355,10.0,17.558,11111222 
WAVCIS,ioos:station:WAVCIS:CSI16:2,2012-01-02T20:00:00Z,29.4012,-89.0355,10.0,17.553,11111222 
WAVCIS,ioos:station:WAVCIS:CSI16:2,2012-01-02T20:15:00Z,29.4012,-89.0355,10.0,17.535,11111222 
WAVCIS,ioos:station:WAVCIS:CSI16:2,2012-01-02T20:30:00Z,29.4012,-89.0355,10.0,17.54,11111222 
WAVCIS,ioos:station:WAVCIS:CSI16:2,2012-01-02T20:45:00Z,29.4012,-89.0355,10.0,17.541,11111222 
WAVCIS,ioos:station:WAVCIS:CSI16:2,2012-01-02T21:00:00Z,29.4012,-89.0355,10.0,17.503,11111222 
WAVCIS,ioos:station:WAVCIS:CSI16:2,2012-01-02T21:15:00Z,29.4012,-89.0355,10.0,17.511,11111222 
WAVCIS,ioos:station:WAVCIS:CSI16:2,2012-01-02T21:30:00Z,29.4012,-89.0355,10.0,17.501,11111222 
WAVCIS,ioos:station:WAVCIS:CSI16:2,2012-01-02T21:45:00Z,29.4012,-89.0355,10.0,17.498,11111222 
WAVCIS,ioos:station:WAVCIS:CSI16:2,2012-01-02T22:00:00Z,29.4012,-89.0355,10.0,17.411,11111222 
WAVCIS,ioos:station:WAVCIS:CSI16:2,2012-01-02T22:15:00Z,29.4012,-89.0355,10.0,17.409,11111222 
WAVCIS,ioos:station:WAVCIS:CSI16:2,2012-01-02T22:30:00Z,29.4012,-89.0355,10.0,17.421,11111222 
WAVCIS,ioos:station:WAVCIS:CSI16:2,2012-01-02T22:45:00Z,29.4012,-89.0355,10.0,17.403,11111222 
WAVCIS,ioos:station:WAVCIS:CSI16:2,2012-01-02T23:00:00Z,29.4012,-89.0355,10.0,17.354,11111222 
WAVCIS,ioos:station:WAVCIS:CSI16:2,2012-01-02T23:15:00Z,29.4012,-89.0355,10.0,17.33,11111222 
WAVCIS,ioos:station:WAVCIS:CSI16:2,2012-01-02T23:30:00Z,29.4012,-89.0355,10.0,17.335,11111222 
WAVCIS,ioos:station:WAVCIS:CSI16:2,2012-01-02T23:45:00Z,29.4012,-89.0355,10.0,17.3,11111222 
WAVCIS,ioos:station:WAVCIS:CSI16:2,2012-01-03T00:00:00Z,29.4012,-89.0355,10.0,17.305,11111222 
WAVCIS,ioos:station:WAVCIS:CSI16:2,2012-01-03T00:15:00Z,29.4012,-89.0355,10.0,17.311,11111222 
WAVCIS,ioos:station:WAVCIS:CSI16:2,2012-01-03T00:30:00Z,29.4012,-89.0355,10.0,17.317,11111222 
WAVCIS,ioos:station:WAVCIS:CSI16:2,2012-01-03T00:45:00Z,29.4012,-89.0355,10.0,17.34,11111222 
WAVCIS,ioos:station:WAVCIS:CSI16:2,2012-01-03T01:00:00Z,29.4012,-89.0355,10.0,17.304,11111222 
WAVCIS,ioos:station:WAVCIS:CSI16:2,2012-01-03T01:15:00Z,29.4012,-89.0355,10.0,17.359,11111222 
WAVCIS,ioos:station:WAVCIS:CSI16:2,2012-01-03T01:30:00Z,29.4012,-89.0355,10.0,17.384,11111222 
WAVCIS,ioos:station:WAVCIS:CSI16:2,2012-01-03T01:45:00Z,29.4012,-89.0355,10.0,17.38,11111222 
WAVCIS,ioos:station:WAVCIS:CSI16:2,2012-01-03T02:00:00Z,29.4012,-89.0355,10.0,17.36,11111222 
WAVCIS,ioos:station:WAVCIS:CSI16:2,2012-01-03T02:15:00Z,29.4012,-89.0355,10.0,17.37,11111222 
WAVCIS,ioos:station:WAVCIS:CSI16:2,2012-01-03T02:30:00Z,29.4012,-89.0355,10.0,17.392,11111222 
WAVCIS,ioos:station:WAVCIS:CSI16:2,2012-01-03T02:45:00Z,29.4012,-89.0355,10.0,17.395,11111222 
WAVCIS,ioos:station:WAVCIS:CSI16:2,2012-01-03T03:00:00Z,29.4012,-89.0355,10.0,17.39,11111222 
WAVCIS,ioos:station:WAVCIS:CSI16:2,2012-01-03T03:15:00Z,29.4012,-89.0355,10.0,17.381,11111222 
WAVCIS,ioos:station:WAVCIS:CSI16:2,2012-01-03T03:30:00Z,29.4012,-89.0355,10.0,17.386,11111222 
WAVCIS,ioos:station:WAVCIS:CSI16:2,2012-01-03T03:45:00Z,29.4012,-89.0355,10.0,17.386,11111222 
WAVCIS,ioos:station:WAVCIS:CSI16:2,2012-01-03T04:00:00Z,29.4012,-89.0355,10.0,17.417,11111222 
WAVCIS,ioos:station:WAVCIS:CSI16:2,2012-01-03T04:15:00Z,29.4012,-89.0355,10.0,17.323,11111222 
WAVCIS,ioos:station:WAVCIS:CSI16:2,2012-01-03T04:30:00Z,29.4012,-89.0355,10.0,17.115,11111222 
WAVCIS,ioos:station:WAVCIS:CSI16:2,2012-01-03T04:45:00Z,29.4012,-89.0355,10.0,16.91,11111222 
WAVCIS,ioos:station:WAVCIS:CSI16:2,2012-01-03T05:00:00Z,29.4012,-89.0355,10.0,16.831,11111222 
WAVCIS,ioos:station:WAVCIS:CSI16:2,2012-01-03T05:15:00Z,29.4012,-89.0355,10.0,16.73,11111222 
WAVCIS,ioos:station:WAVCIS:CSI16:2,2012-01-03T05:30:00Z,29.4012,-89.0355,10.0,16.828,11111222 
WAVCIS,ioos:station:WAVCIS:CSI16:2,2012-01-03T05:45:00Z,29.4012,-89.0355,10.0,16.757,11111222 
WAVCIS,ioos:station:WAVCIS:CSI16:2,2012-01-03T06:00:00Z,29.4012,-89.0355,10.0,16.98,11111222 
WAVCIS,ioos:station:WAVCIS:CSI16:2,2012-01-03T06:15:00Z,29.4012,-89.0355,10.0,17.198,11111222 
WAVCIS,ioos:station:WAVCIS:CSI16:2,2012-01-03T06:30:00Z,29.4012,-89.0355,10.0,16.715,11111222 
WAVCIS,ioos:station:WAVCIS:CSI16:2,2012-01-03T06:45:00Z,29.4012,-89.0355,10.0,16.687,11111222 
WAVCIS,ioos:station:WAVCIS:CSI16:2,2012-01-03T07:00:00Z,29.4012,-89.0355,10.0,16.542,11111222 
WAVCIS,ioos:station:WAVCIS:CSI16:2,2012-01-03T07:15:00Z,29.4012,-89.0355,10.0,16.212,11111222 
WAVCIS,ioos:station:WAVCIS:CSI16:2,2012-01-03T07:30:00Z,29.4012,-89.0355,10.0,16.553,11111222 
WAVCIS,ioos:station:WAVCIS:CSI16:2,2012-01-03T07:45:00Z,29.4012,-89.0355,10.0,16.419,11111222 
WAVCIS,ioos:station:WAVCIS:CSI16:2,2012-01-03T08:00:00Z,29.4012,-89.0355,10.0,15.844,11111222 
WAVCIS,ioos:station:WAVCIS:CSI16:2,2012-01-03T08:15:00Z,29.4012,-89.0355,10.0,15.955,11111222 
WAVCIS,ioos:station:WAVCIS:CSI16:2,2012-01-03T08:30:00Z,29.4012,-89.0355,10.0,15.978,11111222 
WAVCIS,ioos:station:WAVCIS:CSI16:2,2012-01-03T08:45:00Z,29.4012,-89.0355,10.0,15.861,11111222 
WAVCIS,ioos:station:WAVCIS:CSI16:2,2012-01-03T09:00:00Z,29.4012,-89.0355,10.0,15.828,11111222 
WAVCIS,ioos:station:WAVCIS:CSI16:2,2012-01-03T09:15:00Z,29.4012,-89.0355,10.0,15.522,11111222 
WAVCIS,ioos:station:WAVCIS:CSI16:2,2012-01-03T09:30:00Z,29.4012,-89.0355,10.0,15.451,11111222 
WAVCIS,ioos:station:WAVCIS:CSI16:2,2012-01-03T09:45:00Z,29.4012,-89.0355,10.0,15.928,11111222 
WAVCIS,ioos:station:WAVCIS:CSI16:2,2012-01-03T10:00:00Z,29.4012,-89.0355,10.0,16.172,11111222 
WAVCIS,ioos:station:WAVCIS:CSI16:2,2012-01-03T10:15:00Z,29.4012,-89.0355,10.0,16.176,11111222 
WAVCIS,ioos:station:WAVCIS:CSI16:2,2012-01-03T10:30:00Z,29.4012,-89.0355,10.0,16.144,11111222 
WAVCIS,ioos:station:WAVCIS:CSI16:2,2012-01-03T10:45:00Z,29.4012,-89.0355,10.0,15.99,11111222 
WAVCIS,ioos:station:WAVCIS:CSI16:2,2012-01-03T11:00:00Z,29.4012,-89.0355,10.0,15.792,11111222 
WAVCIS,ioos:station:WAVCIS:CSI16:2,2012-01-03T11:15:00Z,29.4012,-89.0355,10.0,15.719,11111222 
WAVCIS,ioos:station:WAVCIS:CSI16:2,2012-01-03T11:30:00Z,29.4012,-89.0355,10.0,15.649,11111222 
WAVCIS,ioos:station:WAVCIS:CSI16:2,2012-01-03T11:45:00Z,29.4012,-89.0355,10.0,15.516,11111222 
WAVCIS,ioos:station:WAVCIS:CSI16:2,2012-01-03T12:00:00Z,29.4012,-89.0355,10.0,16.043,11111222 
WAVCIS,ioos:station:WAVCIS:CSI16:2,2012-01-03T12:15:00Z,29.4012,-89.0355,10.0,15.039,11111222 
WAVCIS,ioos:station:WAVCIS:CSI16:2,2012-01-03T12:30:00Z,29.4012,-89.0355,10.0,15.738,11111222 
WAVCIS,ioos:station:WAVCIS:CSI16:2,2012-01-03T12:45:00Z,29.4012,-89.0355,10.0,16.083,11111222 
WAVCIS,ioos:station:WAVCIS:CSI16:2,2012-01-03T13:00:00Z,29.4012,-89.0355,10.0,15.527,11111222 
WAVCIS,ioos:station:WAVCIS:CSI16:2,2012-01-03T13:15:00Z,29.4012,-89.0355,10.0,15.692,11111222 
WAVCIS,ioos:station:WAVCIS:CSI16:2,2012-01-03T13:30:00Z,29.4012,-89.0355,10.0,15.512,11111222 
WAVCIS,ioos:station:WAVCIS:CSI16:2,2012-01-03T13:45:00Z,29.4012,-89.0355,10.0,15.601,11111222 
WAVCIS,ioos:station:WAVCIS:CSI16:2,2012-01-03T14:00:00Z,29.4012,-89.0355,10.0,15.621,11111222 
WAVCIS,ioos:station:WAVCIS:CSI16:2,2012-01-03T14:15:00Z,29.4012,-89.0355,10.0,15.46,11111222 
WAVCIS,ioos:station:WAVCIS:CSI16:2,2012-01-03T14:30:00Z,29.4012,-89.0355,10.0,15.352,11111222 
WAVCIS,ioos:station:WAVCIS:CSI16:2,2012-01-03T14:45:00Z,29.4012,-89.0355,10.0,15.215,11111222 